Terminal Aerodrome Forecast
Issued by NWS Kansas City/Pleasant Hill, MO

Home | Current Version | Previous Version | Text Only | Print | Product List | Glossary On
Versions: 1 2 3 4 5 6 7 8 9 10 11 12 13 14 15 16
000
FTUS43 KEAX 032300
TAFMCI
TAF
KMCI 032320Z 0400/0424 35012KT P6SM OVC028
     FM041200 01011KT P6SM OVC050
     FM041900 01010KT P6SM SCT100=

USA.gov is the U.S. government's official web portal to all federal, state and local government web resources and services.